Weather History for Soldotna, AK

Change the Weather History Date:

Tuesday, October 11, 2011

  Actual Average Record
Temperature  
Mean Temperature 32 °F -  
Max Temperature 46 °F 44 °F 57 °F (1969)
Min Temperature 19 °F 31 °F 12 °F (1961)
Degree Days  
Heating Degree Days 32    
Moisture  
Dew Point 22 °F    
Average Humidity 73    
Maximum Humidity 93    
Minimum Humidity 37    
Precipitation  
Precipitation 0.00 in - - ()
Sea Level Pressure  
Sea Level Pressure 29.54 in    
Wind  
Wind Speed 2 mph (NE)    
Max Wind Speed 10 mph    
Max Gust Speed -    
Visibility 10 miles    
Events      
Averages and records for this station are not official NWS values.
T = Trace of Precipitation, MM = Missing Value Source: NWS Daily Summary

Daily Weather History Graph

Daily Weather History Graph

Search for Another Location

Airport:

Trip Planner

Search our weather history database for the weather conditions in past years. The results will help you decide how hot, cold, wet, or windy it might be!

Date:

Astronomy

Oct. 11, 2011 Rise Set
Actual Time 8:34 AM AKDT 7:05 PM AKDT
Civil Twilight 7:52 AM AKDT 7:48 PM AKDT
Nautical Twilight 7:03 AM AKDT 8:37 PM AKDT
Astronomical Twilight 6:13 AM AKDT 9:26 PM AKDT
Moon 6:23 PM AKDT (10/11) 8:35 AM AKDT (10/11)
Length of Visible Light 11h 56m
Length of Day
10h 31m
Full, 100% of the Moon is Illuminated
Oct 11
Full
Oct 11
Full
Oct 19
Last Quarter
Oct 26
New
Nov 2
First Quarter

Hourly Weather History & Observations

Time (AKDT) Temp. Windchill Dew Point Humidity Pressure Visibility Wind Dir Wind Speed Gust Speed Precip Events Conditions
12:16 AM 24.8 °F - 21.2 °F 86% 29.50 in 10.0 mi Calm Calm - N/A   Clear
12:36 AM 24.8 °F - 21.2 °F 86% 29.50 in 10.0 mi Calm Calm - N/A   Clear
12:56 AM 24.8 °F - 21.2 °F 86% 29.51 in 10.0 mi Calm Calm - N/A   Clear
1:16 AM 24.8 °F - 19.4 °F 80% 29.51 in 10.0 mi Calm Calm - N/A   Clear
1:36 AM 24.8 °F - 19.4 °F 80% 29.51 in 10.0 mi Calm Calm - N/A   Clear
1:56 AM 24.8 °F - 21.2 °F 86% 29.51 in 10.0 mi Calm Calm - N/A   Clear
2:16 AM 23.0 °F - 19.4 °F 86% 29.51 in 10.0 mi Calm Calm - N/A   Clear
2:36 AM 23.0 °F - 19.4 °F 86% 29.51 in 10.0 mi Calm Calm - N/A   Clear
2:56 AM 21.2 °F - 19.4 °F 93% 29.51 in 10.0 mi Calm Calm - N/A   Clear
3:16 AM 21.2 °F - 19.4 °F 93% 29.50 in 10.0 mi Calm Calm - N/A   Clear
3:36 AM 21.2 °F - 17.6 °F 86% 29.50 in 10.0 mi Calm Calm - N/A   Clear
3:56 AM 21.2 °F - 17.6 °F 86% 29.50 in 10.0 mi Calm Calm - N/A   Clear
4:16 AM 21.2 °F - 19.4 °F 93% 29.50 in 10.0 mi Calm Calm - N/A   Clear
4:36 AM 21.2 °F - 17.6 °F 86% 29.50 in 10.0 mi Calm Calm - N/A   Clear
5:16 AM 21.2 °F - 17.6 °F 86% 29.50 in 10.0 mi Calm Calm - N/A   Clear
5:36 AM 21.2 °F - 17.6 °F 86% 29.51 in 10.0 mi Calm Calm - N/A   Clear
5:56 AM 19.4 °F - 15.8 °F 86% 29.51 in 10.0 mi Calm Calm - N/A   Clear
6:16 AM 21.2 °F 16.4 °F 19.4 °F 93% 29.51 in 10.0 mi East 3.5 mph - N/A   Clear
6:36 AM 21.2 °F - 17.6 °F 86% 29.52 in 10.0 mi Calm Calm - N/A   Clear
6:56 AM 19.4 °F 14.3 °F 17.6 °F 93% 29.52 in 10.0 mi East 3.5 mph - N/A   Clear
7:16 AM 21.2 °F 14.9 °F 19.4 °F 93% 29.52 in 10.0 mi East 4.6 mph - N/A   Clear
7:36 AM 21.2 °F 14.9 °F 19.4 °F 93% 29.53 in 10.0 mi ENE 4.6 mph - N/A   Clear
7:56 AM 21.2 °F 16.4 °F 15.8 °F 80% 29.53 in 10.0 mi East 3.5 mph - N/A   Clear
8:16 AM 19.4 °F 14.3 °F 14.0 °F 80% 29.53 in 10.0 mi ENE 3.5 mph - N/A   Clear
8:36 AM 21.2 °F 14.9 °F 17.6 °F 86% 29.54 in 10.0 mi East 4.6 mph - N/A   Clear
8:56 AM 21.2 °F 14.9 °F 19.4 °F 93% 29.54 in 10.0 mi East 4.6 mph - N/A   Clear
9:16 AM 19.4 °F - 15.8 °F 86% 29.54 in 10.0 mi Calm Calm - N/A   Clear
9:36 AM 21.2 °F 14.9 °F 17.6 °F 86% 29.55 in 10.0 mi East 4.6 mph - N/A   Clear
9:56 AM 23.0 °F 17.0 °F 21.2 °F 93% 29.55 in 10.0 mi East 4.6 mph - N/A   Clear
10:16 AM 24.8 °F 20.5 °F 23.0 °F 93% 29.55 in 10.0 mi East 3.5 mph - N/A   Clear
10:36 AM 26.6 °F 22.6 °F 23.0 °F 86% 29.55 in 10.0 mi East 3.5 mph - N/A   Clear
10:56 AM 26.6 °F 22.6 °F 24.8 °F 93% 29.55 in 10.0 mi East 3.5 mph - N/A   Clear
11:16 AM 30.2 °F - 26.6 °F 86% 29.56 in 10.0 mi Calm Calm - N/A   Clear
11:36 AM 32.0 °F - 26.6 °F 80% 29.56 in 10.0 mi Calm Calm - N/A   Clear
12:16 PM 37.4 °F - 28.4 °F 70% 29.56 in 10.0 mi Calm Calm - N/A   Clear
12:36 PM 37.4 °F - 28.4 °F 70% 29.57 in 10.0 mi Calm Calm - N/A   Clear
12:56 PM 39.2 °F - 26.6 °F 61% 29.57 in 10.0 mi Calm Calm - N/A   Clear
1:16 PM 39.2 °F - 28.4 °F 65% 29.57 in 10.0 mi Calm Calm - N/A   Clear
1:36 PM 42.8 °F - 26.6 °F 53% 29.57 in 10.0 mi Calm Calm - N/A   Clear
1:56 PM 42.8 °F 39.3 °F 26.6 °F 53% 29.57 in 10.0 mi NNE 5.8 mph - N/A   Clear
2:16 PM 42.8 °F 37.5 °F 26.6 °F 53% 29.57 in 10.0 mi NE 9.2 mph - N/A   Clear
2:36 PM 44.6 °F 40.7 °F 24.8 °F 46% 29.57 in 10.0 mi NNE 6.9 mph - N/A   Clear
2:56 PM 44.6 °F 41.4 °F 24.8 °F 46% 29.57 in 10.0 mi NNE 5.8 mph - N/A   Clear
3:16 PM 44.6 °F 41.4 °F 24.8 °F 46% 29.57 in 10.0 mi NNE 5.8 mph - N/A   Clear
3:36 PM 44.6 °F 39.7 °F 23.0 °F 43% 29.57 in 10.0 mi NNE 9.2 mph - N/A   Clear
3:56 PM 46.4 °F 41.5 °F 21.2 °F 37% 29.57 in 10.0 mi North 10.4 mph - N/A   Clear
4:16 PM 46.4 °F 42.4 °F 21.2 °F 37% 29.57 in 10.0 mi North 8.1 mph - N/A   Clear
4:36 PM 46.4 °F 42.9 °F 21.2 °F 37% 29.57 in 10.0 mi NNE 6.9 mph - N/A   Clear
4:56 PM 46.4 °F 42.9 °F 21.2 °F 37% 29.57 in 10.0 mi North 6.9 mph - N/A   Clear
5:16 PM 46.4 °F 43.5 °F 21.2 °F 37% 29.58 in 10.0 mi North 5.8 mph - N/A   Clear
5:36 PM 46.4 °F 44.3 °F 21.2 °F 37% 29.58 in 10.0 mi NNW 4.6 mph - N/A   Clear
5:56 PM 46.4 °F 43.5 °F 23.0 °F 40% 29.59 in 10.0 mi North 5.8 mph - N/A   Clear
6:16 PM 44.6 °F 40.2 °F 28.4 °F 53% 29.59 in 10.0 mi NW 8.1 mph - N/A   Clear
6:36 PM 44.6 °F 40.7 °F 28.4 °F 53% 29.60 in 10.0 mi WNW 6.9 mph - N/A   Clear
6:56 PM 42.8 °F 40.1 °F 28.4 °F 57% 29.60 in 10.0 mi West 4.6 mph - N/A   Clear
7:16 PM 41.0 °F 38.0 °F 28.4 °F 61% 29.61 in 10.0 mi West 4.6 mph - N/A   Clear
7:36 PM 37.4 °F 34.9 °F 26.6 °F 65% 29.61 in 10.0 mi West 3.5 mph - N/A   Clear
7:56 PM 33.8 °F - 26.6 °F 75% 29.62 in 10.0 mi Calm Calm - N/A   Clear
8:16 PM 32.0 °F - 26.6 °F 80% 29.62 in 10.0 mi Calm Calm - N/A   Clear
8:36 PM 30.2 °F - 24.8 °F 80% 29.63 in - Calm Calm - N/A   Clear
8:56 PM 30.2 °F - 24.8 °F 80% 29.63 in - Calm Calm - N/A   Clear
9:16 PM 28.4 °F - 23.0 °F 80% 29.65 in - Calm Calm - N/A   Clear
9:36 PM 28.4 °F - 24.8 °F 86% 29.65 in - Calm Calm - N/A   Unknown
9:56 PM 28.4 °F - 24.8 °F 86% 29.66 in - Calm Calm - N/A   Unknown
10:16 PM 26.6 °F - 21.2 °F 80% 29.67 in - Calm Calm - N/A   Clear
10:36 PM 28.4 °F - 24.8 °F 86% 29.68 in 10.0 mi Calm Calm - N/A   Clear
10:56 PM 28.4 °F - 24.8 °F 86% 29.69 in - Calm Calm - N/A   Unknown
11:16 PM 28.4 °F - 23.0 °F 80% 29.69 in - Calm Calm - N/A   Clear
11:36 PM 30.2 °F - 23.0 °F 75% 29.70 in - Calm Calm - N/A   Clear
11:56 PM 35.6 °F - 23.0 °F 60% 29.71 in - Calm Calm - N/A   Clear